Location: PACMO
(41.3967°N, 90.3760°W)
Time: 15:16:06
(UTC-05:00)

NOAA 19 - Visible Passes

Search period start: 18 August 2017 00:00
Search period end: 28 August 2017 00:00
Orbit: 841 x 863 km, 99.1° (Epoch: 18 August)

Date Brightness Start Highest point End Pass type
(mag) Time Alt. Az. Time Alt. Az. Time Alt. Az.
18 Aug 7.4 03:37:20 10° NE 03:41:09 19° E 03:44:57 10° SE visible
18 Aug 5.4 05:16:49 10° N 05:22:10 57° WNW 05:27:30 10° SSW visible
19 Aug 7.7 03:26:31 10° ENE 03:29:31 15° E 03:32:30 10° SE visible
19 Aug 5.2 05:05:15 10° N 05:10:42 72° WNW 05:16:09 10° SSW visible
20 Aug 7.8 03:16:15 10° ENE 03:17:51 11° E 03:19:27 10° ESE visible
20 Aug 5.2 04:53:43 10° NNE 04:59:13 89° WNW 05:04:43 10° SSW visible
21 Aug 5.4 04:42:14 10° NNE 04:47:43 73° ESE 04:53:11 10° S visible
22 Aug 5.7 04:30:48 10° NNE 04:36:12 57° ESE 04:41:35 10° S visible
23 Aug 6.1 04:19:24 10° NNE 04:24:39 45° E 04:29:53 10° S visible
24 Aug 6.5 04:08:04 10° NNE 04:13:05 36° E 04:18:05 10° SSE visible
24 Aug 6.1 05:48:54 10° N 05:53:39 31° WNW 05:58:24 10° SW visible
25 Aug 6.9 03:56:50 10° NE 04:01:30 28° E 04:06:10 10° SSE visible
25 Aug 5.8 05:37:12 10° N 05:42:14 39° WNW 05:47:17 10° SW visible
26 Aug 7.3 03:45:40 10° NE 03:49:54 22° E 03:54:07 10° SE visible
26 Aug 5.5 05:25:33 10° N 05:30:49 49° WNW 05:36:04 10° SW visible
27 Aug 7.5 03:34:40 10° NE 03:38:17 18° E 03:41:52 10° SE visible
27 Aug 5.3 05:13:57 10° N 05:19:21 61° WNW 05:24:45 10° SSW visible
